AirNav   Air Wisconsin Up To $57,000 Bonus
 
 494 users online  

96G Cowley Field Airport
Sandusky, Michigan, USA

GOING TO SANDUSKY?


FAA INFORMATION EFFECTIVE 25 MARCH 2021

Location

FAA Identifier: 96G
Lat/Long: 43-22-32.6000N 082-49-07.8000W
43-22.543333N 082-49.130000W
43.3757222,-82.8188333
(estimated)
Elevation: 770 ft. / 235 m (estimated)
Variation: 07W (1985)
From city: 3 miles S of SANDUSKY, MI
Time zone: UTC -4 (UTC -5 during Standard Time)
Zip code: 48471

Airport Operations

Airport use: Open to the public
Activation date: 04/1971
Control tower: no
ARTCC: CLEVELAND CENTER
FSS: LANSING FLIGHT SERVICE STATION
NOTAMs facility: LAN (NOTAM-D service available)
Attendance: 
Wind indicator: yes
Segmented circle: no

Airport Communications

CTAF: 122.9

Airport Services

Parking: tiedowns
Airframe service: NONE
Powerplant service: NONE
Bottled oxygen: NONE
Bulk oxygen: NONE

Runway Information

Runway 9/27

Dimensions: 2600 x 60 ft. / 792 x 18 m
Surface: turf, in good condition
Runway edge markings: RWY MKD WITH 3 FT YELLOW CONES.
RUNWAY 9  RUNWAY 27
Latitude: 43-22.536667N43-22.550000N
Longitude: 082-49.423333W082-48.836667W
Elevation: 770.0 ft.768.0 ft.
Traffic pattern: leftleft
Runway heading: 095 magnetic, 088 true275 magnetic, 268 true
Runway end identifier lights: nono
Obstructions: 63 ft. tree, 1089 ft. from runway, 17:1 slope to clear150 ft. pline, 5500 ft. from runway, 36:1 slope to clear

Airport Ownership and Management from official FAA records

Ownership: Privately-owned
Owner: DALE COWLEY
1515 SO SANDUSKY RD
SANDUSKY, MI 48471
Phone 810-837-0111
Manager: DALE COWLEY
1515 SO SANDUSKY RD
SANDUSKY, MI 48471
Phone 810-837-0111

Airport Operational Statistics

Aircraft based on the field: 1
Single engine airplanes: 1
    
Aircraft operations: 60/year *
83% transient general aviation
17% local general aviation
* for 12-month period ending 31 December 2018

Additional Remarks

DEER & TURKEYS ON & INVOF ARPT.
BE ALERT FOR CLOSE PROXIMITY OF POWER POLES ALONG TWY ON W END.
FOR CD CTC CLEVELAND ARTCC AT 440-774-0224, IF UNA CTC 440-774-0490.
SNOW REMOVAL IREG, TO VFY COND CALL 810-837-0111.

Instrument Procedures

There are no published instrument procedures at 96G.

Some nearby airports with instrument procedures:

77G - Marlette Township Airport (12 nm W)
KBAX - Huron County Memorial Airport (25 nm N)
D95 - Dupont-Lapeer Airport (27 nm SW)
KCFS - Tuscola Area Airport (28 nm W)
KPHN - St Clair County International Airport (31 nm SE)
 
Loc | Ops | Rwys | IFR | FBO | Links
Com | Nav | Svcs | Stats | Notes
Area around 96G (Cowley Field Airport)
 
Road maps at: MapQuest Bing Google
 
Aerial photo
WARNING: Photo may not be current or correct
Aerial photo of 96G (Cowley Field Airport)
Photo by Roy Carlson, Plainwell, MI

Do you have a better or more recent aerial photo of Cowley Field Airport that you would like to share? If so, please send us your photo.

 
Sectional chart

 
Airport distance calculator
Flying to Cowley Field Airport? Find the distance to fly.

From to 96G

Sunrise and sunset
Times for 18-Apr-2021
 Local
(UTC-4)
 Zulu
(UTC)
Morning civil twilight06:1510:15
Sunrise06:4510:45
Sunset20:1600:16
Evening civil twilight20:4600:46

Current date and time
Zulu (UTC)  18-Apr-2021 07:02:53
Local (UTC-4)  18-Apr-2021 03:02:53
 
METAR
KBAX 
25nm N 
180655Z AUTO 00000KT 10SM BKN060 OVC080 06/04 A2987 RMK AO2 T00550044
KD95 
27nm SW 
180655Z AUTO 00000KT 10SM BKN050 OVC075 07/04 A2987 RMK AO2 T00710039
KCFS 
28nm W 
180655Z AUTO 00000KT 10SM BKN060 BKN100 07/03 A2987 RMK AO2 T00680028
KPHN 
31nm SE 
180655Z AUTO 00000KT 10SM OVC100 04/01 A2988 RMK AO2
CYZR 
32nm SE 
180600Z AUTO 00000KT 9SM OVC100 06/04 A2988 RMK SLP124
KP58 
38nm N 
180655Z AUTO 00000KT 05/04 A2987 RMK AO1 SLP120 T00500039
KMTC 
46nm S 
180656Z AUTO 20005KT 10SM OVC100 06/06 A2986 RMK AO2 SLP119 T00630062
KHYX 
46nm W 
180655Z AUTO 33007KT 10SM SCT050 05/03 A2989 RMK AO2 T00520030
KFNT 
48nm SW 
180653Z AUTO 30004KT 10SM SCT100 07/03 A2988 RMK AO2 SLP120 T00670028
KPTK 
50nm SW 
180653Z AUTO 00000KT 10SM CLR 08/03 A2985 RMK AO2 SLP111 T00780028
TAF
CYZR 
32nm SE 
171938Z 1720/1802 04008KT P6SM FEW080 RMK FCST BASED ON AUTO OBS. NXT FCST WILL BE ISSUED AT 180745Z
NOTAMs
Click for the latest NOTAMs
NOTAMs are issued by the DoD/FAA and will open in a separate window not controlled by AirNav.

 

 
 

Would you like to see your business listed on this page?

 If your business provides an interesting product or service to pilots, flight crews, aircraft, or users of the Cowley Field Airport, you should consider listing it here.  To start the listing process, click on the button below
 
Add a business
 

Other Pages about Cowley Field Airport

Page from the Michigan Airport Directory (PDF)
 
Update a link
 
Copyright © AirNav, LLC. All rights reserved. Privacy Policy  Contact